Location: Mentone
(34.5413°N, 85.5351°W)
Time: 07:24:47
(UTC-06:00)

Tiros 1 despin weight - Visible Passes

Search period start: 28 November 2014 00:00
Search period end: 08 December 2014 00:00
Orbit: 600 x 651 km, 48.2° (Epoch: 27 November)

Date Brightness Start Highest point End Pass type
(mag) Time Alt. Az. Time Alt. Az. Time Alt. Az.
28 Nov ? 17:15:53 10° SW 17:20:25 88° NW 17:24:31 13° NE visible
28 Nov ? 18:58:58 10° WNW 19:01:44 22° NW 19:01:44 22° NW visible
29 Nov ? 17:35:02 10° WSW 17:39:24 45° NNW 17:42:43 17° NE visible
29 Nov ? 19:18:58 10° NW 19:19:56 13° NW 19:19:56 13° NW visible
30 Nov ? 17:54:39 10° W 17:58:33 27° NNW 18:00:52 18° NNE visible
01 Dec ? 18:14:34 10° WNW 18:17:52 19° NNW 18:18:58 18° N visible
02 Dec ? 16:50:22 10° W 16:54:28 33° NNW 16:58:39 10° NE visible
02 Dec ? 18:34:31 10° NW 18:37:01 15° N 18:37:01 15° N visible
03 Dec ? 17:10:09 10° WNW 17:13:41 22° NNW 17:17:17 10° NNE visible
03 Dec ? 18:54:10 10° NNW 18:55:03 12° NNW 18:55:03 12° NNW visible
04 Dec ? 17:30:06 10° NW 17:33:02 17° N 17:35:52 10° NNE visible
05 Dec ? 17:49:54 10° NW 17:52:28 15° N 17:53:54 13° NNE visible
06 Dec ? 18:09:14 10° NNW 18:11:55 15° N 18:11:55 15° N visible
07 Dec ? 18:28:04 10° NNW 18:29:59 17° N 18:29:59 17° N visible
